Content
SEND FEEDBACK

Daily
Averages
Monthly
Summary
United States of America

PATCHOGUE, NEW YORK


Home > North America > United States > New York
Elevation: 2 feet     Latitude: 40 45N     Longitude: 073 00W

WEATHER
 
SELECT A DAY
Number of Records: 161,725;   Date Range: 9/29/99 - 12/17/14
 
SHARE

PRINT THIS DATA

[ ← Previous Day ]
WEATHER ALMANAC - JANUARY 22, 2013
[ Next Day → ]
[ °C ]   °F
Weather ElementAverageHighLow
Temperature20.1 °F24.1 °F (2:56 am)14 °F (11:56 pm)
Dewpoint2 °F12 °F (2:56 am)-6 °F (8:56 pm)
Humidity46.2 %60 % (2:56 am)36 % (8:56 pm)
Barometer30.01 in30.17 in (10:56 pm)29.83 in (2:56 am)
Wind Speed14.1 mph18.4 mph (12:56 pm)
Wind Gust31.1 mph (12:56 pm)
Weather ElementAverage
Visibility9.9 mi
Wind DirectionWNW (297.3 °)

Weather ElementTotal
Precipitation---
Heating Degree Days46 (Base 65)
Averaged from 22 records on January 22, 2013
WEATHER CONDITIONS BREAKOUT
WIND DIRECTION BREAKOUT
WEATHER BY HOUR - JANUARY 22, 2013
[ °C ]   °F
Local TimeTemperatureDewpointHumidityBarometerVisibilityWind DirectionWind SpeedGust SpeedPrecipitationEventsConditions
2:56 AM24.1 °F12.0 °F60 %29.83 in10.0 miNW (310°)12.7 mphClear
3:56 AM21.9 °F10.0 °F60 %29.84 in10.0 miWest (270°)10.4 mphClear
4:56 AM21.9 °F9.0 °F58 %29.87 in10.0 miWest (280°)8.1 mphScattered Clouds
5:56 AM21.9 °F9.0 °F58 %29.90 in10.0 miWNW (300°)10.4 mphMostly Cloudy
6:56 AM21.9 °F10.0 °F60 %29.93 in10.0 miNW (310°)13.8 mphOvercast
7:56 AM21.9 °F8.1 °F55 %29.96 in10.0 miWNW (300°)16.1 mph24.2 mphOvercast
8:56 AM21.0 °F3.0 °F46 %29.99 in10.0 miWNW (300°)17.3 mph24.2 mphClear
9:56 AM21.0 °F1.9 °F44 %30.01 in10.0 miWNW (300°)15.0 mph24.2 mph0.00 inClear
10:56 AM21.9 °F3.9 °F46 %30.01 in10.0 miWNW (290°)16.1 mph26.5 mphPartly Cloudy
11:56 AM21.9 °F3.9 °F46 %29.99 in10.0 miWNW (290°)15.0 mph25.3 mphClear
12:56 PM21.9 °F3.9 °F46 %29.98 in8.0 miWest (270°)18.4 mph31.1 mphMostly Cloudy
1:56 PM21.9 °F1.0 °F40 %29.98 in10.0 miWNW (290°)13.8 mph23.0 mphMostly Cloudy
2:56 PM21.0 °F1.0 °F42 %30.00 in10.0 miNW (310°)16.1 mph24.2 mphMostly Cloudy
3:56 PM21.0 °F0.0 °F40 %30.02 in10.0 miNW (320°)18.4 mph27.6 mphMostly Cloudy
4:56 PM19.9 °F-2.0 °F38 %30.05 in10.0 miWNW (290°)16.1 mph20.7 mphScattered Clouds
5:56 PM19.0 °F-2.0 °F40 %30.08 in10.0 miWNW (300°)13.8 mph19.6 mphMostly Cloudy
6:56 PM18.0 °F-2.9 °F40 %30.11 in10.0 miWNW (300°)16.1 mph24.2 mphPartly Cloudy
7:56 PM18.0 °F-4.0 °F38 %30.12 in10.0 miNW (310°)13.8 mph20.7 mphClear
8:56 PM17.1 °F-6.0 °F36 %30.15 in10.0 miNW (310°)13.8 mph27.6 mphPartly Cloudy
9:56 PM16.0 °F-4.0 °F41 %30.16 in10.0 miWNW (290°)10.4 mphMostly Cloudy
10:56 PM15.1 °F-5.1 °F41 %30.17 in10.0 miWNW (300°)13.8 mph26.5 mphMostly Cloudy
11:56 PM14.0 °F-6.0 °F41 %30.17 in10.0 miWNW (300°)11.5 mph19.6 mphPartly Cloudy
Hourly data recorded from KHWV, located miles away from Patchogue, New York







STORIES FROM OUR PARTNERS